This is the latest recevied weather packets stored in our database for station/object K7CTM. If no packets are shown the sender has not sent any weather packets the latest 10 day(s).
| Time | Temp. | Humidity | Pressure | Rain* | Wind** | Luminosity | Snow |
|---|---|---|---|---|---|---|---|
| 1787836946 | 13.89° C | 76% | 1031 hPa | 0 mm | - | 45 W/m² | - |
| 1787836641 | 13.89° C | 76% | 1031.1 hPa | 0 mm | - | 39 W/m² | - |
| 1787836341 | 13.33° C | 74% | 1031 hPa | 0 mm | - | 33 W/m² | - |
| 1787836036 | 13.33° C | 75% | 1030.8 hPa | 0 mm | - | 28 W/m² | - |
| 1787835732 | 13.33° C | 77% | 1030.6 hPa | 0 mm | - | 23 W/m² | - |
| 1787835427 | 12.78° C | 78% | 1030.6 hPa | 0 mm | - | 19 W/m² | - |
| 1787835122 | 12.78° C | 79% | 1030.5 hPa | 0 mm | - | 15 W/m² | - |
| 1787834821 | 12.78° C | 77% | 1030.6 hPa | 0 mm | - | 11 W/m² | - |
| 1787834516 | 13.33° C | 78% | 1030.4 hPa | 0 mm | - | 8 W/m² | - |
| 1787834211 | 13.33° C | 75% | 1030.6 hPa | 0 mm | - | 5 W/m² | - |
| 1787833907 | 13.89° C | 76% | 1030.6 hPa | 0 mm | - | 3 W/m² | - |
| 1787833602 | 14.44° C | 73% | 1030.3 hPa | 0 mm | - | 2 W/m² | - |
| 1787833298 | 15° C | 67% | 1030.4 hPa | 0 mm | - | 1 W/m² | - |
| 1787832992 | 15° C | 66% | 1030.7 hPa | 0 mm | - | 0 W/m² | - |
| 1787832689 | 15° C | 68% | 1030.6 hPa | 0 mm | - | 0 W/m² | - |
| 1787832388 | 15° C | 68% | 1030.3 hPa | 0 mm | - | 0 W/m² | - |
| 1787832082 | 14.44° C | 68% | 1030.4 hPa | 0 mm | - | 0 W/m² | - |
| 1787831781 | 15° C | 66% | 1030.5 hPa | 0 mm | - | 0 W/m² | - |
| 1787831480 | 14.44° C | 69% | 1030.6 hPa | 0 mm | - | 0 W/m² | - |
| 1787831179 | 14.44° C | 70% | 1030.2 hPa | 0 mm | - | 0 W/m² | - |
| 1787830876 | 14.44° C | 72% | 1030.4 hPa | 0 mm | - | 0 W/m² | - |
| 1787830575 | 13.89° C | 73% | 1030.5 hPa | 0 mm | - | 0 W/m² | - |
| 1787830274 | 14.44° C | 69% | 1030.6 hPa | 0 mm | - | 0 W/m² | - |
| 1787829969 | 14.44° C | 70% | 1030.4 hPa | 0 mm | - | 0 W/m² | - |
| 1787829668 | 14.44° C | 70% | 1030.4 hPa | 0 mm | - | 0 W/m² | - |
* Rain latest hour (hover to see other rain measurements)
** Current wind speed in m/s (hover to see current wind gust speed)